Zurück zum Katalog

COSMOS 2143 DEB

AktivPO
NORAD 57721·DEBRIS·🇷🇺 Russia

Gestartet May 16, 1991 von Plesetsk Cosmodrome

Loading…

Nächste Überflüge (nächste 24 Stunden)

TLE

AktuellSource: Space-Track

Epoche: Sep 14, 2026, 06:15 UTC

1 57721U 91033J   26257.26079278  .00004495  00000-0  21171-1 0  9996
2 57721  82.1385 190.6416 0028801 107.4921 252.9327 12.74692971145054

Verfolge COSMOS 2143 DEB in Echtzeit mit AllMySat

Download on the App Store